Regional Weather Roundup
Issued by NWS

Home | Current Version | Previous Version | Graphics & Text | Print | Product List | Glossary On
Versions: 1 2 3 4 5 6 7 8 9 10 11 12 13 14 15 16 17 18 19 20 21 22 23 24 25 26 27 28 29 30 31 32 33 34 35 36 37 38 39 40 41 42 43 44 45 46 47 48 49 50
000
ASUS43 KBIS 310110
RWRND

NORTH DAKOTA REGIONAL WEATHER ROUNDUP
NATIONAL WEATHER SERVICE BISMARCK ND
800 PM CDT MON MAY 30 2016

NOTE: "FAIR" INDICATES FEW OR NO CLOUDS BELOW 12,000 FEET WITH NO
SIGNIFICANT WEATHER AND/OR OBSTRUCTIONS TO VISIBILITY.


NDZ001>003-009>011-017-310200-
NORTHWEST NORTH DAKOTA

CITY           SKY/WX    TMP DP  RH WIND       PRES   REMARKS
WILLISTON      LGT RAIN  55  52  89 N8        29.92R FOG
MINOT          LGT RAIN  60  55  83 NE5       29.86R
MINOT AFB      LGT RAIN  58  53  83 NW6       29.85R
$$

NDZ018>021-031>035-040>046-310200-
SOUTHWEST NORTH DAKOTA

CITY           SKY/WX    TMP DP  RH WIND       PRES   REMARKS
BISMARCK       RAIN      58  56  93 N24G31    29.79F FOG
DICKINSON      RAIN      52  50  93 W14       29.88R FOG
GARRISON         N/A     56  53  90 E9        29.85S
HETTINGER ARPT MOSUNNY   56  49  77 NW24G40   29.92R
$$

NDZ004>008-012>016-024-026-027-054-310200-
NORTHEAST NORTH DAKOTA

CITY           SKY/WX    TMP DP  RH WIND       PRES   REMARKS
GRAND FORKS    LGT RAIN  64  53  67 NE13      29.81F
GRND FRKS AFB  LGT RAIN  61  55  82 W3        29.85R
DEVILS LAKE    LGT RAIN  59  55  87 NE13      29.85F
$$

NDZ022-023-025-028>030-036>039-047>053-310200-
SOUTHEAST NORTH DAKOTA

CITY           SKY/WX    TMP DP  RH WIND       PRES   REMARKS
FARGO          CLOUDY    76  52  43 SE16G25   29.75F
JAMESTOWN      LGT RAIN  61  56  83 NE24G33   29.75F
$$




USA.gov is the U.S. government's official web portal to all federal, state and local government web resources and services.